TimePDT,TemperatureF,Dew PointF,Humidity,Sea Level PressureIn,VisibilityMPH,Wind Direction,Wind SpeedMPH,Gust SpeedMPH,PrecipitationIn,Events,Conditions,WindDirDegrees,DateUTC
12:00 AM,55.4,53.1,92,29.83,-9999.0,WNW,12.7,-,N/A,,Unknown,300,2013-10-07 07:00:00
1:00 AM,54.9,51.3,88,29.83,-9999.0,WNW,20.7,-,N/A,,Unknown,290,2013-10-07 08:00:00
2:00 AM,54.9,49.3,81,29.83,-9999.0,WNW,12.7,-,N/A,,Unknown,300,2013-10-07 09:00:00
3:00 AM,54.1,49.1,83,29.83,-9999.0,WNW,15.0,-,N/A,,Unknown,290,2013-10-07 10:00:00
4:00 AM,52.9,50.5,92,29.84,-9999.0,WSW,12.7,-,0.09,,Unknown,250,2013-10-07 11:00:00
5:00 AM,53,51,90,29.85,,WSW,8.1,,,,,250,2013-10-07 12:00:00
5:00 AM,53.1,50.9,92,29.85,-9999.0,WSW,8.1,-,0.08,,Unknown,250,2013-10-07 12:00:00
6:00 AM,52.9,50.7,92,29.85,-9999.0,WSW,15.0,-,0.07,,Unknown,250,2013-10-07 13:00:00
7:00 AM,52.5,50.9,94,29.85,-9999.0,WSW,15.0,-,0.07,,Unknown,250,2013-10-07 14:00:00
8:00 AM,52.7,50.4,92,29.86,-9999.0,WSW,18.4,-,0.02,,Unknown,250,2013-10-07 15:00:00
9:00 AM,53.4,49.8,88,29.88,-9999.0,West,23.0,-,N/A,,Unknown,270,2013-10-07 16:00:00
10:00 AM,52.9,49.5,88,29.90,-9999.0,West,19.6,-,N/A,,Unknown,260,2013-10-07 17:00:00
11:00 AM,53,49,82,29.91,,West,19.6,,,,,270,2013-10-07 18:00:00
11:00 AM,53.4,49.1,85,29.91,-9999.0,West,19.6,-,N/A,,Unknown,270,2013-10-07 18:00:00
12:00 PM,53.8,48.6,82,29.92,-9999.0,West,24.2,-,N/A,,Unknown,280,2013-10-07 19:00:00
1:00 PM,54.0,48.2,81,29.93,-9999.0,West,27.6,-,N/A,,Unknown,280,2013-10-07 20:00:00
2:00 PM,53.4,48.7,84,29.94,-9999.0,West,24.2,-,N/A,,Unknown,280,2013-10-07 21:00:00
3:00 PM,53.6,48.6,83,29.95,-9999.0,West,21.9,-,N/A,,Unknown,280,2013-10-07 22:00:00
4:00 PM,52.5,49.8,91,29.96,-9999.0,West,23.0,-,0.02,,Unknown,280,2013-10-07 23:00:00
5:00 PM,53,49,82,29.95,,West,24.2,,,,,270,2013-10-08 00:00:00
5:00 PM,52.9,49.1,87,29.95,-9999.0,West,24.2,-,N/A,,Unknown,270,2013-10-08 00:00:00
6:00 PM,52.3,49.6,91,29.96,-9999.0,West,23.0,-,N/A,,Unknown,270,2013-10-08 01:00:00
7:00 PM,51.3,49.8,95,29.94,-9999.0,West,29.9,-,N/A,,Unknown,270,2013-10-08 02:00:00
8:00 PM,52.5,49.3,89,29.95,-9999.0,West,25.3,-,N/A,,Unknown,260,2013-10-08 03:00:00
9:00 PM,52.9,48.7,86,29.94,-9999.0,West,29.9,35.7,N/A,,Unknown,270,2013-10-08 04:00:00
10:00 PM,52.9,48.7,86,29.96,-9999.0,West,31.1,38.0,N/A,,Unknown,270,2013-10-08 05:00:00
11:00 PM,53,48,78,29.97,,West,25.3,,,,,260,2013-10-08 06:00:00
11:00 PM,52.5,48.0,85,29.97,-9999.0,West,25.3,-,N/A,,Unknown,260,2013-10-08 06:00:00